Time,TemperatureF,DewpointF,PressureIn,WindDirection,WindDirectionDegrees,WindSpeedMPH,WindSpeedGustMPH,Humidity,HourlyPrecipIn,Conditions,Clouds,dailyrainin,SolarRadiationWatts/m^2,SoftwareType,DateUTC
2013-11-26 00:03:00,26.0,22.0,-100.00,SSW,203,5.0,16.0,85,0.00,,,0.06,0.000000,,2013-11-26 05:03:00,
2013-11-26 00:43:00,27.0,22.0,-100.00,South,183,7.0,12.0,81,0.00,,,0.06,0.000000,,2013-11-26 05:43:00,
2013-11-26 00:53:00,27.0,22.0,-100.00,South,183,7.0,12.0,81,0.00,,,0.06,0.000000,,2013-11-26 05:53:00,
2013-11-26 01:02:00,27.0,22.0,-100.00,South,183,7.0,12.0,81,0.00,,,0.06,0.000000,,2013-11-26 06:02:00,
2013-11-26 01:42:00,27.0,23.0,-100.00,South,179,4.0,14.0,86,0.00,,,0.06,0.000000,,2013-11-26 06:42:00,
2013-11-26 01:52:00,27.0,23.0,-100.00,South,179,4.0,14.0,86,0.00,,,0.06,0.000000,,2013-11-26 06:52:00,
2013-11-26 02:02:00,27.0,23.0,-100.00,South,179,4.0,14.0,86,0.00,,,0.06,0.000000,,2013-11-26 07:02:00,
2013-11-26 02:42:00,28.0,24.0,-100.00,South,176,7.0,12.0,83,0.00,,,0.06,0.000000,,2013-11-26 07:42:00,
2013-11-26 02:52:00,28.0,24.0,-100.00,South,176,7.0,12.0,83,0.00,,,0.06,0.000000,,2013-11-26 07:52:00,
2013-11-26 03:02:00,28.0,24.0,-100.00,South,176,7.0,12.0,83,0.00,,,0.06,0.000000,,2013-11-26 08:02:00,
2013-11-26 03:42:00,29.0,24.0,-100.00,South,191,6.0,15.0,80,0.00,,,0.06,0.000000,,2013-11-26 08:42:00,
2013-11-26 03:52:00,29.0,24.0,-100.00,South,191,6.0,15.0,80,0.00,,,0.06,0.000000,,2013-11-26 08:52:00,
2013-11-26 04:02:00,29.0,24.0,-100.00,South,191,6.0,15.0,80,0.00,,,0.06,0.000000,,2013-11-26 09:02:00,
2013-11-26 04:44:00,29.0,25.0,-100.00,South,187,6.0,13.0,83,0.00,,,0.06,0.000000,,2013-11-26 09:44:00,
2013-11-26 04:54:00,29.0,25.0,-100.00,South,187,6.0,13.0,83,0.00,,,0.06,0.000000,,2013-11-26 09:54:00,
2013-11-26 05:03:00,29.0,25.0,-100.00,South,187,6.0,13.0,83,0.00,,,0.06,0.000000,,2013-11-26 10:03:00,
2013-11-26 05:43:00,29.0,24.0,-100.00,South,191,6.0,15.0,81,0.00,,,0.06,0.000000,,2013-11-26 10:43:00,
2013-11-26 05:53:00,29.0,24.0,-100.00,South,191,6.0,15.0,81,0.00,,,0.06,0.000000,,2013-11-26 10:53:00,
2013-11-26 06:02:00,29.0,24.0,-100.00,South,191,6.0,15.0,81,0.00,,,0.06,0.000000,,2013-11-26 11:02:00,
2013-11-26 06:42:00,30.0,25.0,-100.00,SSW,205,6.0,13.0,80,0.00,,,0.06,0.000000,,2013-11-26 11:42:00,
2013-11-26 06:53:00,30.0,25.0,-100.00,SSW,205,6.0,13.0,80,0.00,,,0.06,0.000000,,2013-11-26 11:53:00,
2013-11-26 07:02:00,30.0,25.0,-100.00,SSW,205,6.0,13.0,80,0.00,,,0.06,0.000000,,2013-11-26 12:02:00,
2013-11-26 07:42:00,30.0,25.0,-100.00,South,175,4.0,10.0,81,0.00,,,0.06,0.000000,,2013-11-26 12:42:00,
2013-11-26 07:52:00,30.0,25.0,-100.00,South,175,4.0,10.0,81,0.00,,,0.06,0.000000,,2013-11-26 12:52:00,
2013-11-26 08:02:00,30.0,25.0,-100.00,South,175,4.0,10.0,81,0.00,,,0.06,0.000000,,2013-11-26 13:02:00,
2013-11-26 08:42:00,30.0,25.0,-100.00,South,178,4.0,12.0,82,0.00,,,0.06,4.000000,,2013-11-26 13:42:00,
2013-11-26 08:52:00,30.0,25.0,-100.00,South,178,4.0,12.0,82,0.00,,,0.06,4.000000,,2013-11-26 13:52:00,
2013-11-26 09:03:00,30.0,25.0,-100.00,South,178,4.0,12.0,82,0.00,,,0.06,4.000000,,2013-11-26 14:03:00,
2013-11-26 09:42:00,31.0,26.0,-100.00,South,172,5.0,11.0,80,0.00,,,0.06,36.000000,,2013-11-26 14:42:00,
2013-11-26 09:52:00,31.0,26.0,-100.00,South,172,5.0,11.0,80,0.00,,,0.06,36.000000,,2013-11-26 14:52:00,
2013-11-26 10:02:00,31.0,26.0,-100.00,South,172,5.0,11.0,80,0.00,,,0.06,36.000000,,2013-11-26 15:02:00,
2013-11-26 10:44:00,32.0,27.0,-100.00,SSW,200,4.0,10.0,80,0.00,,,0.05,59.000000,,2013-11-26 15:44:00,
2013-11-26 10:55:00,32.0,27.0,-100.00,SSW,200,4.0,10.0,80,0.00,,,0.05,59.000000,,2013-11-26 15:55:00,
2013-11-26 11:04:00,32.0,27.0,-100.00,SSW,200,4.0,10.0,80,0.00,,,0.05,59.000000,,2013-11-26 16:04:00,
2013-11-26 11:43:00,32.0,26.0,-100.00,South,182,4.0,11.0,79,0.01,,,0.06,67.000000,,2013-11-26 16:43:00,
2013-11-26 11:54:00,32.0,26.0,-100.00,South,182,4.0,11.0,79,0.01,,,0.06,67.000000,,2013-11-26 16:54:00,
2013-11-26 12:03:00,32.0,26.0,-100.00,South,182,4.0,11.0,79,0.01,,,0.06,67.000000,,2013-11-26 17:03:00,
2013-11-26 12:43:00,31.0,28.0,-100.00,SSE,168,3.0,10.0,89,0.00,,,0.03,47.000000,,2013-11-26 17:43:00,
2013-11-26 12:53:00,31.0,28.0,-100.00,SSE,168,3.0,10.0,89,0.00,,,0.03,47.000000,,2013-11-26 17:53:00,
2013-11-26 13:02:00,31.0,28.0,-100.00,SSE,168,3.0,10.0,89,0.00,,,0.03,47.000000,,2013-11-26 18:02:00,
2013-11-26 13:42:00,32.0,30.0,-100.00,South,179,2.0,5.0,91,0.00,,,0.02,42.000000,,2013-11-26 18:42:00,
2013-11-26 13:53:00,32.0,30.0,-100.00,South,179,2.0,5.0,91,0.00,,,0.02,42.000000,,2013-11-26 18:53:00,
2013-11-26 14:03:00,32.0,30.0,-100.00,South,179,2.0,5.0,91,0.00,,,0.02,42.000000,,2013-11-26 19:03:00,
2013-11-26 14:42:00,32.0,30.0,-100.00,South,185,2.0,4.0,92,0.00,,,0.01,20.000000,,2013-11-26 19:42:00,
2013-11-26 14:52:00,32.0,30.0,-100.00,South,185,2.0,4.0,92,0.00,,,0.01,20.000000,,2013-11-26 19:52:00,
2013-11-26 15:02:00,32.0,30.0,-100.00,South,185,2.0,4.0,92,0.00,,,0.01,20.000000,,2013-11-26 20:02:00,
2013-11-26 15:42:00,32.0,30.0,-100.00,South,171,2.0,4.0,92,0.01,,,0.02,14.000000,,2013-11-26 20:42:00,
2013-11-26 15:53:00,32.0,30.0,-100.00,South,171,2.0,4.0,92,0.01,,,0.02,14.000000,,2013-11-26 20:53:00,
2013-11-26 16:02:00,32.0,30.0,-100.00,South,171,2.0,4.0,92,0.01,,,0.02,14.000000,,2013-11-26 21:02:00,
2013-11-26 16:44:00,32.0,31.0,-100.00,SW,224,0.0,4.0,95,0.00,,,0.02,8.000000,,2013-11-26 21:44:00,
2013-11-26 16:53:00,32.0,31.0,-100.00,SW,224,0.0,4.0,95,0.00,,,0.02,8.000000,,2013-11-26 21:53:00,
2013-11-26 17:03:00,32.0,31.0,-100.00,SW,224,0.0,4.0,95,0.00,,,0.02,8.000000,,2013-11-26 22:03:00,
2013-11-26 17:43:00,31.0,30.0,-100.00,SSE,157,0.0,0.0,97,0.01,,,0.03,1.000000,,2013-11-26 22:43:00,
2013-11-26 17:53:00,31.0,30.0,-100.00,SSE,157,0.0,0.0,97,0.01,,,0.03,1.000000,,2013-11-26 22:53:00,
2013-11-26 18:02:00,31.0,30.0,-100.00,SSE,157,0.0,0.0,97,0.01,,,0.03,1.000000,,2013-11-26 23:02:00,
2013-11-26 18:43:00,31.0,30.0,-100.00,NNE,12,0.0,0.0,97,0.00,,,0.03,0.000000,,2013-11-26 23:43:00,
2013-11-26 18:53:00,31.0,30.0,-100.00,NNE,12,0.0,0.0,97,0.00,,,0.03,0.000000,,2013-11-26 23:53:00,
2013-11-26 19:03:00,31.0,30.0,-100.00,NNE,12,0.0,0.0,97,0.00,,,0.03,0.000000,,2013-11-27 00:03:00,
2013-11-26 19:42:00,31.0,30.0,-100.00,East,95,0.0,2.0,97,0.00,,,0.03,0.000000,,2013-11-27 00:42:00,
2013-11-26 19:52:00,31.0,30.0,-100.00,East,95,0.0,2.0,97,0.00,,,0.03,0.000000,,2013-11-27 00:52:00,
2013-11-26 20:02:00,31.0,30.0,-100.00,East,95,0.0,2.0,97,0.00,,,0.03,0.000000,,2013-11-27 01:02:00,
2013-11-26 20:42:00,31.0,31.0,-100.00,NNW,341,1.0,3.0,98,0.00,,,0.03,0.000000,,2013-11-27 01:42:00,
2013-11-26 20:52:00,31.0,31.0,-100.00,NNW,341,1.0,3.0,98,0.00,,,0.03,0.000000,,2013-11-27 01:52:00,
2013-11-26 21:02:00,31.0,31.0,-100.00,NNW,341,1.0,3.0,98,0.00,,,0.03,0.000000,,2013-11-27 02:02:00,
2013-11-26 21:42:00,31.0,30.0,-100.00,SW,225,0.0,3.0,97,0.00,,,0.03,0.000000,,2013-11-27 02:42:00,
2013-11-26 21:52:00,31.0,30.0,-100.00,SW,225,0.0,3.0,97,0.00,,,0.03,0.000000,,2013-11-27 02:52:00,
2013-11-26 22:02:00,31.0,30.0,-100.00,SW,225,0.0,3.0,97,0.00,,,0.03,0.000000,,2013-11-27 03:02:00,
2013-11-26 22:44:00,31.0,30.0,-100.00,WNW,297,0.0,3.0,97,0.00,,,0.03,0.000000,,2013-11-27 03:44:00,
2013-11-26 22:54:00,31.0,30.0,-100.00,WNW,297,0.0,3.0,97,0.00,,,0.03,0.000000,,2013-11-27 03:54:00,
2013-11-26 23:04:00,31.0,30.0,-100.00,WNW,297,0.0,3.0,97,0.00,,,0.03,0.000000,,2013-11-27 04:04:00,
2013-11-26 23:43:00,31.0,30.0,-100.00,NNW,342,3.0,8.0,96,0.00,,,0.03,0.000000,,2013-11-27 04:43:00,
2013-11-26 23:53:00,31.0,30.0,-100.00,NNW,342,3.0,8.0,96,0.00,,,0.03,0.000000,,2013-11-27 04:53:00,